Weather History for Holdrege, NE

Change the Weather History Date:

Thursday, August 29, 2013

  Actual Average Record
Temperature  
Mean Temperature 83 °F -  
Max Temperature 100 °F 84 °F 103 °F (1984)
Min Temperature 66 °F 59 °F 45 °F (1955)
Cooling Degree Days 18    
Growing Degree Days 33 (Base 50)    
Moisture  
Dew Point 64 °F    
Average Humidity 61    
Maximum Humidity 90    
Minimum Humidity 22    
Precipitation  
Precipitation 0.00 in - - ()
Sea Level Pressure  
Sea Level Pressure 29.98 in    
Wind  
Wind Speed 6 mph (SSE)    
Max Wind Speed 14 mph    
Max Gust Speed 17 mph    
Visibility 10 miles    
Events      
Averages and records for this station are not official NWS values.
T = Trace of Precipitation, MM = Missing Value Source: NWS Daily Summary

Daily Weather History Graph

Daily Weather History Graph

Search for Another Location

Airport:

Trip Planner

Search our weather history database for the weather conditions in past years. The results will help you decide how hot, cold, wet, or windy it might be!

Date:

Astronomy

Aug. 29, 2013 Rise Set
Actual Time 7:02 AM CDT 8:13 PM CDT
Civil Twilight 6:33 AM CDT 8:41 PM CDT
Nautical Twilight 6:00 AM CDT 9:15 PM CDT
Astronomical Twilight 5:24 AM CDT 9:50 PM CDT
Moon 12:54 AM CDT (8/29) 3:44 PM CDT (8/29)
Length of Visible Light 14h 07m
Length of Day
13h 11m
Last Quarter, 38% of the Moon is Illuminated
Aug 29
Last Quarter
Sep 5
New
Sep 12
First Quarter
Sep 19
Full
Sep 26
Last Quarter

Hourly Weather History & Observations

Time (CDT) Temp. Heat Index Dew Point Humidity Pressure Visibility Wind Dir Wind Speed Gust Speed Precip Events Conditions
12:15 AM 72.3 °F - 65.8 °F 80% 30.04 in 10.0 mi SSE 5.8 mph - N/A   Clear
12:35 AM 72.0 °F - 66.2 °F 82% 30.04 in 10.0 mi SSE 5.8 mph - N/A   Clear
12:55 AM 71.6 °F - 66.4 °F 84% 30.04 in 10.0 mi SSE 4.6 mph - N/A   Clear
1:15 AM 71.6 °F - 66.4 °F 84% 30.04 in 10.0 mi SSE 4.6 mph - N/A   Clear
1:35 AM 70.9 °F - 66.2 °F 85% 30.04 in 10.0 mi SSE 3.5 mph - N/A   Clear
1:55 AM 69.8 °F - 65.8 °F 87% 30.02 in 10.0 mi SSE 3.5 mph - N/A   Clear
2:15 AM 69.4 °F - 65.5 °F 87% 30.02 in 10.0 mi SE 4.6 mph - N/A   Clear
2:35 AM 69.4 °F - 65.5 °F 87% 30.02 in 10.0 mi SE 4.6 mph - N/A   Clear
2:55 AM 69.4 °F - 65.5 °F 87% 30.01 in 10.0 mi SE 5.8 mph - N/A   Clear
3:15 AM 69.4 °F - 65.3 °F 87% 30.01 in 10.0 mi SE 4.6 mph - N/A   Clear
3:35 AM 68.9 °F - 65.3 °F 88% 30.01 in 10.0 mi SSE 4.6 mph - N/A   Clear
3:55 AM 69.1 °F - 65.3 °F 88% 30.00 in 10.0 mi SE 4.6 mph - N/A   Clear
4:15 AM 68.9 °F - 64.9 °F 87% 30.00 in 10.0 mi SE 4.6 mph - N/A   Clear
4:35 AM 68.5 °F - 64.8 °F 88% 30.00 in 10.0 mi SSE 4.6 mph - N/A   Clear
4:55 AM 68.7 °F - 64.6 °F 87% 30.00 in 10.0 mi SE 4.6 mph - N/A   Clear
5:15 AM 68.0 °F - 64.4 °F 88% 30.00 in 10.0 mi SSE 4.6 mph - N/A   Clear
5:35 AM 67.8 °F - 64.0 °F 88% 30.00 in 10.0 mi Calm Calm - N/A   Clear
5:55 AM 66.4 °F - 63.0 °F 89% 30.00 in 10.0 mi SE 4.6 mph - N/A   Clear
6:15 AM 66.7 °F - 63.5 °F 89% 30.00 in 10.0 mi SE 4.6 mph - N/A   Clear
6:35 AM 67.3 °F - 64.2 °F 90% 30.00 in 10.0 mi SSE 4.6 mph - N/A   Clear
6:55 AM 68.0 °F - 64.6 °F 89% 30.00 in 10.0 mi SSE 4.6 mph - N/A   Clear
7:15 AM 66.9 °F - 63.9 °F 90% 30.01 in 10.0 mi SSE 3.5 mph - N/A   Clear
7:35 AM 68.0 °F - 64.6 °F 89% 30.01 in 10.0 mi SSE 4.6 mph - N/A   Clear
7:55 AM 69.3 °F - 65.3 °F 87% 30.02 in 10.0 mi SSE 3.5 mph - N/A   Clear
8:15 AM 70.7 °F - 66.2 °F 86% 30.01 in 10.0 mi SSE 5.8 mph - N/A   Clear
8:35 AM 72.1 °F - 66.6 °F 83% 30.01 in 10.0 mi SSE 6.9 mph - N/A   Clear
8:55 AM 74.3 °F - 66.9 °F 78% 30.01 in 10.0 mi South 5.8 mph - N/A   Clear
9:15 AM 77.0 °F - 66.6 °F 70% 30.02 in 10.0 mi South 8.1 mph - N/A   Clear
9:35 AM 77.2 °F - 66.2 °F 69% 30.02 in 10.0 mi South 8.1 mph - N/A   Clear
9:55 AM 79.7 °F - 66.2 °F 63% 30.02 in 10.0 mi South 6.9 mph - N/A   Clear
10:15 AM 81.7 °F 84.0 °F 66.4 °F 60% 30.02 in 10.0 mi SSW 5.8 mph - N/A   Clear
10:35 AM 82.6 °F 84.9 °F 66.2 °F 58% 30.02 in 10.0 mi SSE 5.8 mph - N/A   Clear
10:55 AM 84.2 °F 86.6 °F 66.4 °F 55% 30.02 in 10.0 mi SSE 5.8 mph - N/A   Clear
11:15 AM 86.4 °F 88.4 °F 65.8 °F 50% 30.02 in 10.0 mi SSE 6.9 mph - N/A   Clear
11:35 AM 87.6 °F 89.7 °F 65.5 °F 48% 30.01 in 10.0 mi SSE 5.8 mph - N/A   Clear
12:15 PM 90.7 °F 92.8 °F 65.1 °F 43% 30.00 in 10.0 mi SE 8.1 mph - N/A   Clear
12:55 PM 95.2 °F 96.8 °F 63.5 °F 35% 30.00 in 10.0 mi SE 10.4 mph - N/A   Clear
1:15 PM 95.5 °F 96.5 °F 62.6 °F 33% 29.99 in 10.0 mi SE 12.7 mph - N/A   Clear
1:35 PM 97.0 °F 98.3 °F 62.6 °F 32% 29.99 in 10.0 mi SSE 11.5 mph - N/A   Clear
1:55 PM 98.1 °F 99.1 °F 61.3 °F 30% 29.98 in 10.0 mi SSE 10.4 mph - N/A   Clear
2:15 PM 98.6 °F 97.6 °F 56.7 °F 25% 29.98 in 10.0 mi South 11.5 mph - N/A   Clear
2:35 PM 98.6 °F 97.2 °F 56.5 °F 24% 29.97 in 10.0 mi South 11.5 mph - N/A   Clear
2:55 PM 99.3 °F 99.1 °F 58.6 °F 26% 29.97 in 10.0 mi South 13.8 mph 17.3 mph N/A   Clear
3:15 PM 99.1 °F 98.8 °F 59.0 °F 26% 29.97 in 10.0 mi South 10.4 mph - N/A   Clear
3:35 PM 99.9 °F 99.0 °F 57.6 °F 24% 29.96 in 10.0 mi South 10.4 mph - N/A   Clear
3:55 PM 99.9 °F 99.0 °F 57.4 °F 24% 29.95 in 10.0 mi South 10.4 mph - N/A   Clear
4:15 PM 100.2 °F 99.5 °F 57.7 °F 24% 29.95 in 10.0 mi SSE 10.4 mph - N/A   Clear
4:35 PM 100.2 °F 99.0 °F 56.5 °F 23% 29.94 in 10.0 mi SSE 8.1 mph - N/A   Clear
4:55 PM 99.5 °F 98.4 °F 57.2 °F 24% 29.94 in 10.0 mi South 6.9 mph - N/A   Clear
5:15 PM 100.4 °F 99.3 °F 56.3 °F 23% 29.93 in 10.0 mi SSE 9.2 mph - N/A   Clear
5:35 PM 100.4 °F 99.7 °F 57.0 °F 24% 29.93 in 10.0 mi SE 8.1 mph - N/A   Clear
5:55 PM 100.4 °F 98.8 °F 55.0 °F 22% 29.93 in 10.0 mi SE 6.9 mph - N/A   Clear
6:15 PM 100.0 °F 98.8 °F 56.1 °F 23% 29.93 in 10.0 mi SE 5.8 mph - N/A   Clear
6:35 PM 97.0 °F 99.3 °F 64.2 °F 34% 29.93 in 10.0 mi East 9.2 mph - N/A   Clear
6:55 PM 95.5 °F 99.4 °F 66.9 °F 39% 29.93 in 10.0 mi ESE 8.1 mph - N/A   Clear
7:15 PM 93.7 °F 98.2 °F 68.4 °F 43% 29.93 in 10.0 mi ESE 8.1 mph - N/A   Clear
7:35 PM 91.6 °F 94.3 °F 66.4 °F 43% 29.93 in 10.0 mi ESE 6.9 mph - N/A   Clear
7:55 PM 87.4 °F 91.5 °F 68.9 °F 54% 29.93 in 10.0 mi ESE 6.9 mph - N/A   Clear
8:15 PM 83.7 °F 87.0 °F 68.5 °F 60% 29.93 in 10.0 mi ESE 8.1 mph - N/A   Clear
8:35 PM 81.0 °F 83.4 °F 67.1 °F 63% 29.94 in 10.0 mi ESE 9.2 mph - N/A   Clear
8:55 PM 81.5 °F 83.3 °F 64.9 °F 57% 29.94 in 10.0 mi SE 8.1 mph - N/A   Clear
9:15 PM 80.8 °F 82.4 °F 64.0 °F 57% 29.95 in 10.0 mi SE 6.9 mph - N/A   Clear
9:35 PM 79.3 °F - 64.2 °F 60% 29.95 in 10.0 mi SE 8.1 mph - N/A   Clear
9:55 PM 77.2 °F - 64.4 °F 65% 29.96 in 10.0 mi SE 6.9 mph - N/A   Clear
10:15 PM 76.1 °F - 64.4 °F 67% 29.96 in 10.0 mi SE 5.8 mph - N/A   Clear
10:35 PM 75.7 °F - 64.4 °F 68% 29.96 in 10.0 mi SSE 5.8 mph - N/A   Clear
10:55 PM 75.9 °F - 63.7 °F 66% 29.96 in 10.0 mi SSE 6.9 mph - N/A   Clear
11:15 PM 76.6 °F - 63.5 °F 64% 29.96 in 10.0 mi South 6.9 mph - N/A   Clear
11:35 PM 77.2 °F - 63.0 °F 61% 29.96 in 10.0 mi South 6.9 mph - N/A   Clear
11:55 PM 77.4 °F - 62.8 °F 61% 29.96 in 10.0 mi South 9.2 mph - N/A   Clear